^^
Your Local Weather - Clay, NY Station Historical Data
Daily Summary for January 5, 2017 Units:  Metric    English   Both
« Previous Day
Next Day »
Daily Weekly Monthly Yearly Custom
  High: Low: Average:
Temperature: -3.9 °C -6.8 °C -5.7 °C
Dew Point: -7.6 °C -15.3 °C -11.7 °C
Humidity: 88% 50% 64%
Wind Speed: 11.3km/h 0km/h 5.8km/h
Wind Gust: 24.1km/h - -
Wind- - WSW
Pressure: 1012.8 hPa 1005 hPa -
Precipitation: 0 mm    
Historical Graphs
 
 
Tabular Data for January 5, 2017
Time Temperature Dew Point Pressure Wind Wind Speed Wind Gust Humidity Rainfall Rate (Hourly) solar
00:04 -6.4 °C -14.7 °C 1005 hPa WNW 8 km/h 14.5 km/h 52% 0 mm 0 W/m2
00:10 -6.4 °C -14.7 °C 1005 hPa West 9.7 km/h 9.7 km/h 52% 0 mm 0 W/m2
00:16 -6.5 °C -15 °C 1005 hPa WNW 9.7 km/h 9.7 km/h 51% 0 mm 0 W/m2
00:22 -6.5 °C -15.2 °C 1005 hPa West 9.7 km/h 9.7 km/h 50% 0 mm 0 W/m2
00:28 -6.6 °C -15.3 °C 1005 hPa SW 8 km/h 11.3 km/h 50% 0 mm 0 W/m2
00:34 -6.5 °C -15.2 °C 1005 hPa SW 9.7 km/h 19.3 km/h 50% 0 mm 0 W/m2
00:40 -6.5 °C -15.2 °C 1005 hPa WNW 11.3 km/h 11.3 km/h 50% 0 mm 0 W/m2
00:46 -6.4 °C -15.2 °C 1005 hPa SSW 11.3 km/h 22.5 km/h 50% 0 mm 0 W/m2
00:52 -6.5 °C -15.2 °C 1005 hPa West 11.3 km/h 11.3 km/h 50% 0 mm 0 W/m2
00:58 -6.6 °C -15.1 °C 1005 hPa West 8 km/h 11.3 km/h 51% 0 mm 0 W/m2
01:04 -6.5 °C -15 °C 1005 hPa WNW 8 km/h 14.5 km/h 51% 0 mm 0 W/m2
01:10 -6.5 °C -15.2 °C 1005 hPa West 9.7 km/h 9.7 km/h 50% 0 mm 0 W/m2
01:16 -6.5 °C -15.2 °C 1005 hPa NW 9.7 km/h 9.7 km/h 50% 0 mm 0 W/m2
01:22 -6.5 °C -15 °C 1005 hPa WSW 6.4 km/h 8 km/h 51% 0 mm 0 W/m2
01:28 -6.5 °C -15.2 °C 1005 hPa SW 8 km/h 20.9 km/h 50% 0 mm 0 W/m2
01:34 -6.4 °C -14.9 °C 1005 hPa WSW 9.7 km/h 9.7 km/h 51% 0 mm 0 W/m2
01:40 -6.4 °C -14.7 °C 1005 hPa West 8 km/h 8 km/h 52% 0 mm 0 W/m2
01:46 -6.4 °C -14.9 °C 1005 hPa SSW 8 km/h 9.7 km/h 51% 0 mm 0 W/m2
01:52 -6.4 °C -14.9 °C 1005.3 hPa WNW 9.7 km/h 9.7 km/h 51% 0 mm 0 W/m2
01:58 -6.4 °C -14.9 °C 1005.3 hPa West 8 km/h 9.7 km/h 51% 0 mm 0 W/m2
02:04 -6.4 °C -14.9 °C 1005.3 hPa WSW 9.7 km/h 9.7 km/h 51% 0 mm 0 W/m2
02:10 -6.4 °C -14.9 °C 1005.6 hPa NW 11.3 km/h 11.3 km/h 51% 0 mm 0 W/m2
02:16 -6.4 °C -14.9 °C 1005.6 hPa West 11.3 km/h 19.3 km/h 51% 0 mm 0 W/m2
02:22 -6.4 °C -14.7 °C 1005.6 hPa South 11.3 km/h 12.9 km/h 52% 0 mm 0 W/m2
02:28 -6.4 °C -14.4 °C 1006 hPa WSW 11.3 km/h 12.9 km/h 53% 0 mm 0 W/m2
02:34 -6.4 °C -14.4 °C 1006 hPa West 11.3 km/h 16.1 km/h 53% 0 mm 0 W/m2
02:40 -6.4 °C -14.2 °C 1006 hPa WSW 9.7 km/h 9.7 km/h 54% 0 mm 0 W/m2
02:46 -6.5 °C -14.1 °C 1006.3 hPa WSW 8 km/h 12.9 km/h 55% 0 mm 0 W/m2
02:52 -6.4 °C -14.2 °C 1006.7 hPa WSW 9.7 km/h 9.7 km/h 54% 0 mm 0 W/m2
02:58 -6.4 °C -14.2 °C 1006.3 hPa WSW 9.7 km/h 9.7 km/h 54% 0 mm 0 W/m2
03:04 -6.4 °C -13.9 °C 1006.7 hPa WSW 9.7 km/h 9.7 km/h 55% 0 mm 0 W/m2
03:10 -6.4 °C -14.2 °C 1006.7 hPa West 9.7 km/h 11.3 km/h 54% 0 mm 0 W/m2
03:16 -6.3 °C -14.1 °C 1006.7 hPa SW 11.3 km/h 20.9 km/h 54% 0 mm 0 W/m2
03:22 -6.3 °C -13.8 °C 1006.7 hPa SW 9.7 km/h 11.3 km/h 55% 0 mm 0 W/m2
03:28 -6.3 °C -13.8 °C 1007 hPa WNW 8 km/h 16.1 km/h 55% 0 mm 0 W/m2
03:34 -6.3 °C -13.8 °C 1007 hPa WSW 9.7 km/h 14.5 km/h 55% 0 mm 0 W/m2
03:40 -6.3 °C -13.6 °C 1006.7 hPa WSW 9.7 km/h 9.7 km/h 56% 0 mm 0 W/m2
03:46 -6.2 °C -13.8 °C 1006.7 hPa WSW 8 km/h 14.5 km/h 55% 0 mm 0 W/m2
03:52 -6.2 °C -13.8 °C 1007 hPa WNW 9.7 km/h 14.5 km/h 55% 0 mm 0 W/m2
03:58 -6.2 °C -13.8 °C 1007 hPa WSW 9.7 km/h 14.5 km/h 55% 0 mm 0 W/m2
04:04 -6.2 °C -13.8 °C 1007 hPa WNW 9.7 km/h 16.1 km/h 55% 0 mm 0 W/m2
04:10 -6.1 °C -13.7 °C 1007 hPa SW 8 km/h 8 km/h 55% 0 mm 0 W/m2
04:16 -6.2 °C -13.6 °C 1007.3 hPa WSW 9.7 km/h 17.7 km/h 56% 0 mm 0 W/m2
04:22 -6.2 °C -13.6 °C 1007.3 hPa WNW 11.3 km/h 11.3 km/h 56% 0 mm 0 W/m2
04:28 -6.2 °C -13.8 °C 1007.3 hPa SW 8 km/h 11.3 km/h 55% 0 mm 0 W/m2
04:34 -6.1 °C -13.7 °C 1007.3 hPa WSW 8 km/h 11.3 km/h 55% 0 mm 0 W/m2
04:40 -6.1 °C -13.7 °C 1007.3 hPa West 8 km/h 8 km/h 55% 0 mm 0 W/m2
04:46 -6.1 °C -13.7 °C 1007.3 hPa WSW 9.7 km/h 11.3 km/h 55% 0 mm 0 W/m2
04:52 -6.1 °C -13.9 °C 1007.3 hPa West 9.7 km/h 9.7 km/h 54% 0 mm 0 W/m2
04:58 -6.1 °C -13.9 °C 1007.7 hPa West 9.7 km/h 9.7 km/h 54% 0 mm 0 W/m2
05:04 -6.1 °C -13.9 °C 1007.7 hPa West 9.7 km/h 22.5 km/h 54% 0 mm 0 W/m2
05:10 -6.1 °C -13.7 °C 1007.7 hPa NW 9.7 km/h 9.7 km/h 55% 0 mm 0 W/m2
05:16 -6.1 °C -13.9 °C 1007.7 hPa WSW 9.7 km/h 24.1 km/h 54% 0 mm 0 W/m2
05:22 -6.1 °C -13.9 °C 1007.7 hPa WSW 9.7 km/h 9.7 km/h 54% 0 mm 0 W/m2
05:28 -6.1 °C -13.9 °C 1007.7 hPa West 9.7 km/h 16.1 km/h 54% 0 mm 0 W/m2
05:34 -6.1 °C -13.9 °C 1007.7 hPa West 11.3 km/h 12.9 km/h 54% 0 mm 0 W/m2
05:40 -6.1 °C -13.9 °C 1007.7 hPa WSW 9.7 km/h 9.7 km/h 54% 0 mm 0 W/m2
05:46 -6.1 °C -13.9 °C 1007.7 hPa South 9.7 km/h 9.7 km/h 54% 0 mm 0 W/m2
05:52 -6.2 °C -14 °C 1007.7 hPa WSW 9.7 km/h 11.3 km/h 54% 0 mm 0 W/m2
05:58 -6.2 °C -14 °C 1008 hPa West 9.7 km/h 11.3 km/h 54% 0 mm 0 W/m2
06:04 -6.2 °C -13.8 °C 1008 hPa West 9.7 km/h 11.3 km/h 55% 0 mm 0 W/m2
06:10 -6.2 °C -14 °C 1008.4 hPa WSW 9.7 km/h 11.3 km/h 54% 0 mm 0 W/m2
06:16 -6.1 °C -13.9 °C 1008.4 hPa West 9.7 km/h 17.7 km/h 54% 0 mm 0 W/m2
06:22 -6.1 °C -13.9 °C 1008.7 hPa WSW 9.7 km/h 11.3 km/h 54% 0 mm 0 W/m2
06:28 -6.1 °C -13.9 °C 1008.7 hPa SW 8 km/h 16.1 km/h 54% 0 mm 0 W/m2
06:34 -6.1 °C -13.9 °C 1008.7 hPa WNW 8 km/h 8 km/h 54% 0 mm 0 W/m2
06:40 -6.1 °C -13.9 °C 1008.7 hPa WNW 6.4 km/h 9.7 km/h 54% 0 mm 0 W/m2
06:46 -6.1 °C -13.9 °C 1008.7 hPa West 8 km/h 9.7 km/h 54% 0 mm 0 W/m2
06:52 -6.2 °C -14.2 °C 1008.7 hPa West 8 km/h 8 km/h 53% 0 mm 0 W/m2
06:58 -6.2 °C -14.3 °C 1008.7 hPa West 8 km/h 8 km/h 53% 0 mm 0 W/m2
07:04 -6.3 °C -14.3 °C 1008.7 hPa South 8 km/h 9.7 km/h 53% 0 mm 0 W/m2
07:10 -6.3 °C -14.3 °C 1008.7 hPa WNW 8 km/h 8 km/h 53% 0 mm 0 W/m2
07:16 -6.4 °C -14.4 °C 1008.7 hPa WNW 6.4 km/h 12.9 km/h 53% 0 mm 0 W/m2
07:22 -6.5 °C -14.5 °C 1008.7 hPa SW 4.8 km/h 4.8 km/h 53% 0 mm 0 W/m2
07:28 -6.5 °C -14.5 °C 1009 hPa WSW 6.4 km/h 16.1 km/h 53% 0 mm 0 W/m2
07:34 -6.5 °C -14.5 °C 1009.4 hPa West 6.4 km/h 8 km/h 53% 0 mm 0 W/m2
07:40 -6.6 °C -14.3 °C 1009.4 hPa West 6.4 km/h 6.4 km/h 54% 0 mm 5 W/m2
07:46 -6.6 °C -14.3 °C 1009.7 hPa SSW 6.4 km/h 8 km/h 54% 0 mm 9 W/m2
07:52 -6.6 °C -14.1 °C 1009.7 hPa WSW 6.4 km/h 6.4 km/h 55% 0 mm 12 W/m2
07:58 -6.6 °C -14.4 °C 1010 hPa West 6.4 km/h 6.4 km/h 54% 0 mm 16 W/m2
08:04 -6.6 °C -14.3 °C 1010 hPa West 8 km/h 20.9 km/h 54% 0 mm 19 W/m2
08:10 -6.5 °C -14.3 °C 1010 hPa WSW 9.7 km/h 9.7 km/h 54% 0 mm 26 W/m2
08:16 -6.4 °C -14.2 °C 1010.4 hPa West 6.4 km/h 9.7 km/h 54% 0 mm 25 W/m2
08:22 -6.4 °C -13.9 °C 1010.4 hPa West 4.8 km/h 12.9 km/h 55% 0 mm 32 W/m2
08:28 -6.4 °C -13.9 °C 1010.4 hPa SW 6.4 km/h 12.9 km/h 55% 0 mm 42 W/m2
08:34 -6.4 °C -14.2 °C 1010.4 hPa SW 8 km/h 9.7 km/h 54% 0 mm 95 W/m2
08:40 -6.1 °C -14.1 °C 1010.4 hPa WSW 8 km/h 8 km/h 53% 0 mm 207 W/m2
08:46 -5.7 °C -13.7 °C 1010.7 hPa West 6.4 km/h 8 km/h 53% 0 mm 199 W/m2
08:52 -5.8 °C -14.1 °C 1010.7 hPa SSE 6.4 km/h 14.5 km/h 52% 0 mm 216 W/m2
08:58 -5.9 °C -14 °C 1010.4 hPa West 8 km/h 14.5 km/h 53% 0 mm 216 W/m2
09:04 -5.9 °C -13.9 °C 1010.7 hPa WSW 9.7 km/h 16.1 km/h 53% 0 mm 218 W/m2
09:10 -5.7 °C -13.8 °C 1010.7 hPa WSW 8 km/h 8 km/h 53% 0 mm 230 W/m2
09:16 -5.6 °C -13.9 °C 1010.7 hPa West 8 km/h 9.7 km/h 52% 0 mm 227 W/m2
09:22 -5.8 °C -14.1 °C 1010.7 hPa SW 8 km/h 14.5 km/h 52% 0 mm 113 W/m2
09:28 -5.8 °C -14.1 °C 1010.7 hPa WSW 8 km/h 14.5 km/h 52% 0 mm 127 W/m2
09:34 -5.7 °C -13.8 °C 1011.1 hPa WNW 8 km/h 14.5 km/h 53% 0 mm 169 W/m2
09:40 -5.6 °C -13.9 °C 1011.1 hPa SW 8 km/h 8 km/h 52% 0 mm 178 W/m2
09:46 -5.6 °C -13.6 °C 1011.1 hPa West 9.7 km/h 12.9 km/h 53% 0 mm 195 W/m2
09:52 -5.4 °C -13.7 °C 1011.1 hPa SW 8 km/h 9.7 km/h 52% 0 mm 188 W/m2
09:58 -5.3 °C -13.9 °C 1011.1 hPa SW 6.4 km/h 20.9 km/h 51% 0 mm 162 W/m2
10:04 -5.6 °C -14.1 °C 1011.1 hPa WNW 8 km/h 14.5 km/h 51% 0 mm 151 W/m2
10:10 -5.6 °C -13.6 °C 1011.1 hPa WSW 8 km/h 8 km/h 53% 0 mm 156 W/m2
10:16 -5.4 °C -13.5 °C 1011.1 hPa West 4.8 km/h 8 km/h 53% 0 mm 167 W/m2
10:22 -5.3 °C -13.4 °C 1011.1 hPa SW 4.8 km/h 4.8 km/h 53% 0 mm 209 W/m2
10:28 -5.3 °C -13.4 °C 1011.1 hPa West 6.4 km/h 8 km/h 53% 0 mm 172 W/m2
10:34 -5.4 °C -13.5 °C 1011.4 hPa WSW 8 km/h 9.7 km/h 53% 0 mm 186 W/m2
10:40 -5.3 °C -13.7 °C 1011.4 hPa West 8 km/h 8 km/h 52% 0 mm 176 W/m2
10:46 -5.3 °C -13.4 °C 1011.7 hPa SW 9.7 km/h 19.3 km/h 53% 0 mm 148 W/m2
10:52 -5.3 °C -13.4 °C 1011.7 hPa West 9.7 km/h 9.7 km/h 53% 0 mm 142 W/m2
10:58 -5.3 °C -13.2 °C 1011.7 hPa West 8 km/h 12.9 km/h 54% 0 mm 137 W/m2
11:04 -5.3 °C -13.2 °C 1011.7 hPa NW 9.7 km/h 12.9 km/h 54% 0 mm 149 W/m2
11:10 -5.3 °C -12.9 °C 1012.1 hPa SW 9.7 km/h 16.1 km/h 55% 0 mm 135 W/m2
11:16 -5.3 °C -12.9 °C 1012.1 hPa West 9.7 km/h 16.1 km/h 55% 0 mm 123 W/m2
11:22 -5.3 °C -13.2 °C 1012.1 hPa WSW 9.7 km/h 9.7 km/h 54% 0 mm 125 W/m2
11:28 -5.1 °C -12.6 °C 1011.7 hPa WSW 9.7 km/h 9.7 km/h 56% 0 mm 178 W/m2
11:34 -4.6 °C -12.5 °C 1011.7 hPa West 8 km/h 11.3 km/h 54% 0 mm 415 W/m2
11:40 -4.7 °C -12.6 °C 1011.7 hPa SW 8 km/h 12.9 km/h 54% 0 mm 376 W/m2
11:46 -4.7 °C -12.6 °C 1011.4 hPa West 9.7 km/h 19.3 km/h 54% 0 mm 281 W/m2
11:52 -4.6 °C -12.5 °C 1011.4 hPa West 11.3 km/h 12.9 km/h 54% 0 mm 373 W/m2
11:58 -4.8 °C -12.7 °C 1011.4 hPa WSW 11.3 km/h 14.5 km/h 54% 0 mm 207 W/m2
12:04 -4.7 °C -12.6 °C 1011.1 hPa West 11.3 km/h 14.5 km/h 54% 0 mm 294 W/m2
12:10 -4.4 °C -12.6 °C 1011.1 hPa West 9.7 km/h 20.9 km/h 53% 0 mm 369 W/m2
12:16 -4.4 °C -12.6 °C 1010.7 hPa SW 9.7 km/h 20.9 km/h 53% 0 mm 271 W/m2
12:22 -4.6 °C -12.4 °C 1010.7 hPa SW 8 km/h 12.9 km/h 54% 0 mm 244 W/m2
12:28 -4.4 °C -12.4 °C 1010.7 hPa SW 6.4 km/h 12.9 km/h 54% 0 mm 285 W/m2
12:36 -4.3 °C -12 °C 1010.7 hPa SW 6.4 km/h 8 km/h 55% 0 mm 330 W/m2
12:42 -4.1 °C -12 °C 1010.7 hPa West 6.4 km/h 12.9 km/h 54% 0 mm 295 W/m2
12:48 -3.9 °C -11.6 °C 1010.7 hPa SW 4.8 km/h 12.9 km/h 55% 0 mm 220 W/m2
12:56 -4.2 °C -11.9 °C 1010.4 hPa SW 8 km/h 14.5 km/h 55% 0 mm 295 W/m2
13:04 -3.9 °C -11.4 °C 1010.7 hPa West 9.7 km/h 9.7 km/h 56% 0 mm 292 W/m2
13:10 -4.2 °C -11.7 °C 1010.7 hPa SSW 8 km/h 8 km/h 56% 0 mm 174 W/m2
13:16 -4.3 °C -11.6 °C 1010.7 hPa West 8 km/h 8 km/h 57% 0 mm 142 W/m2
13:22 -4.3 °C -11.3 °C 1010.7 hPa SSW 6.4 km/h 6.4 km/h 58% 0 mm 165 W/m2
13:28 -4.3 °C -11.3 °C 1010.7 hPa West 4.8 km/h 6.4 km/h 58% 0 mm 142 W/m2
13:36 -4.2 °C -11.1 °C 1010.7 hPa WSW 6.4 km/h 8 km/h 59% 0 mm 118 W/m2
13:42 -4.3 °C -11.3 °C 1010.7 hPa WNW 6.4 km/h 6.4 km/h 58% 0 mm 142 W/m2
13:48 -4.2 °C -11.1 °C 1010.7 hPa SW 4.8 km/h 6.4 km/h 59% 0 mm 118 W/m2
13:54 -4.2 °C -11 °C 1010.7 hPa WNW 6.4 km/h 6.4 km/h 59% 0 mm 176 W/m2
14:00 -4.2 °C -11 °C 1010.4 hPa West 6.4 km/h 6.4 km/h 59% 0 mm 144 W/m2
14:06 -4.2 °C -11.1 °C 1010.7 hPa WSW 6.4 km/h 9.7 km/h 59% 0 mm 206 W/m2
14:12 -4.2 °C -11.2 °C 1010.7 hPa West 6.4 km/h 16.1 km/h 58% 0 mm 146 W/m2
14:18 -4.2 °C -11.2 °C 1010.4 hPa SW 6.4 km/h 16.1 km/h 58% 0 mm 128 W/m2
14:24 -4.1 °C -11.2 °C 1010.7 hPa SW 6.4 km/h 11.3 km/h 58% 0 mm 116 W/m2
14:30 -4.1 °C -11.6 °C 1010.7 hPa WSW 6.4 km/h 6.4 km/h 56% 0 mm 98 W/m2
14:36 -4.2 °C -11.9 °C 1010.7 hPa SSW 6.4 km/h 9.7 km/h 55% 0 mm 72 W/m2
14:42 -4.2 °C -11.4 °C 1010.4 hPa WSW 4.8 km/h 11.3 km/h 57% 0 mm 95 W/m2
14:48 -4.1 °C -11.6 °C 1010.4 hPa WSW 6.4 km/h 11.3 km/h 56% 0 mm 81 W/m2
14:54 -4.1 °C -11.4 °C 1010.4 hPa WNW 6.4 km/h 8 km/h 57% 0 mm 79 W/m2
15:00 -4.2 °C -11.7 °C 1010.4 hPa West 6.4 km/h 6.4 km/h 56% 0 mm 74 W/m2
15:06 -4.2 °C -11.5 °C 1010.7 hPa WSW 6.4 km/h 8 km/h 57% 0 mm 69 W/m2
15:12 -4.3 °C -11.4 °C 1010.7 hPa WNW 6.4 km/h 8 km/h 58% 0 mm 62 W/m2
15:18 -4.4 °C -11.4 °C 1010.7 hPa West 6.4 km/h 8 km/h 58% 0 mm 100 W/m2
15:24 -4.3 °C -11.3 °C 1010.7 hPa West 4.8 km/h 6.4 km/h 58% 0 mm 49 W/m2
15:30 -4.3 °C -11.6 °C 1010.7 hPa West 4.8 km/h 4.8 km/h 57% 0 mm 40 W/m2
15:36 -4.4 °C -11.2 °C 1010.7 hPa West 4.8 km/h 6.4 km/h 59% 0 mm 33 W/m2
15:42 -4.5 °C -11.1 °C 1011.1 hPa NW 4.8 km/h 11.3 km/h 60% 0 mm 37 W/m2
15:48 -4.6 °C -10.7 °C 1011.1 hPa West 4.8 km/h 11.3 km/h 62% 0 mm 25 W/m2
15:54 -4.7 °C -10.8 °C 1011.1 hPa SW 4.8 km/h 4.8 km/h 62% 0 mm 23 W/m2
16:00 -4.7 °C -10.7 °C 1011.1 hPa West 6.4 km/h 8 km/h 63% 0 mm 19 W/m2
16:06 -4.8 °C -10.3 °C 1011.1 hPa West 4.8 km/h 8 km/h 65% 0 mm 25 W/m2
16:12 -4.8 °C -10.4 °C 1011.1 hPa WSW 1.6 km/h 6.4 km/h 65% 0 mm 12 W/m2
16:18 -4.9 °C -10.3 °C 1011.1 hPa WSW 4.8 km/h 9.7 km/h 66% 0 mm 5 W/m2
16:24 -5 °C -9.8 °C 1010.7 hPa West 4.8 km/h 6.4 km/h 69% 0 mm 7 W/m2
16:30 -5.1 °C -9.7 °C 1010.7 hPa SW 3.2 km/h 3.2 km/h 70% 0 mm 5 W/m2
16:36 -5.2 °C -9.6 °C 1011.1 hPa WSW 3.2 km/h 3.2 km/h 71% 0 mm 0 W/m2
16:42 -5.2 °C -9.3 °C 1010.7 hPa WSW 1.6 km/h 4.8 km/h 73% 0 mm 0 W/m2
16:48 -5.3 °C -9.2 °C 1010.7 hPa West 3.2 km/h 6.4 km/h 74% 0 mm 0 W/m2
16:54 -5.4 °C -8.9 °C 1010.7 hPa West 3.2 km/h 3.2 km/h 76% 0 mm 0 W/m2
17:00 -5.5 °C -8.9 °C 1011.1 hPa West 1.6 km/h 1.6 km/h 77% 0 mm 0 W/m2
17:06 -5.6 °C -8.6 °C 1010.7 hPa West 1.6 km/h 3.2 km/h 79% 0 mm 0 W/m2
17:12 -5.6 °C -8.4 °C 1010.7 hPa Calm     80% 0 mm 0 W/m2
17:18 -5.6 °C -8.3 °C 1011.1 hPa West 1.6 km/h 4.8 km/h 81% 0 mm 0 W/m2
17:24 -5.7 °C -8.2 °C 1011.1 hPa West 1.6 km/h 1.6 km/h 82% 0 mm 0 W/m2
17:30 -5.7 °C -8.2 °C 1010.7 hPa Calm     82% 0 mm 0 W/m2
17:36 -5.7 °C -8.2 °C 1010.7 hPa Calm     83% 0 mm 0 W/m2
17:42 -5.7 °C -7.9 °C 1010.7 hPa Calm   1.6 km/h 84% 0 mm 0 W/m2
17:48 -5.7 °C -8 °C 1010.7 hPa West 1.6 km/h 1.6 km/h 84% 0 mm 0 W/m2
17:54 -5.7 °C -7.8 °C 1010.7 hPa West 1.6 km/h 1.6 km/h 85% 0 mm 0 W/m2
18:00 -5.7 °C -8 °C 1010.7 hPa West 1.6 km/h 1.6 km/h 84% 0 mm 0 W/m2
18:06 -5.8 °C -7.9 °C 1010.7 hPa SW 1.6 km/h 3.2 km/h 85% 0 mm 0 W/m2
18:12 -5.8 °C -7.9 °C 1010.7 hPa SW 1.6 km/h 1.6 km/h 85% 0 mm 0 W/m2
18:18 -5.8 °C -7.9 °C 1010.7 hPa SW 1.6 km/h 3.2 km/h 85% 0 mm 0 W/m2
18:24 -5.8 °C -7.8 °C 1010.7 hPa SW 1.6 km/h 1.6 km/h 86% 0 mm 0 W/m2
18:30 -5.8 °C -7.8 °C 1011.1 hPa Calm     86% 0 mm 0 W/m2
18:36 -5.8 °C -7.8 °C 1011.1 hPa SW 1.6 km/h 1.6 km/h 86% 0 mm 0 W/m2
18:42 -5.8 °C -7.8 °C 1011.1 hPa Calm     86% 0 mm 0 W/m2
18:48 -5.8 °C -7.8 °C 1011.1 hPa Calm     86% 0 mm 0 W/m2
18:54 -5.8 °C -7.8 °C 1011.1 hPa Calm   1.6 km/h 86% 0 mm 0 W/m2
19:00 -5.8 °C -7.8 °C 1011.1 hPa SW 1.6 km/h 1.6 km/h 86% 0 mm 0 W/m2
19:06 -5.8 °C -7.7 °C 1011.1 hPa Calm   1.6 km/h 86% 0 mm 0 W/m2
19:12 -5.8 °C -7.7 °C 1011.1 hPa Calm     86% 0 mm 0 W/m2
19:18 -5.8 °C -7.7 °C 1011.4 hPa Calm     86% 0 mm 0 W/m2
19:24 -5.8 °C -7.7 °C 1011.7 hPa Calm     86% 0 mm 0 W/m2
19:30 -5.7 °C -7.7 °C 1011.7 hPa Calm     86% 0 mm 0 W/m2
19:36 -5.7 °C -7.6 °C 1011.7 hPa Calm   1.6 km/h 87% 0 mm 0 W/m2
19:42 -5.7 °C -7.6 °C 1011.7 hPa Calm     87% 0 mm 0 W/m2
19:48 -5.8 °C -7.7 °C 1011.4 hPa Calm     87% 0 mm 0 W/m2
19:54 -5.9 °C -7.7 °C 1011.7 hPa Calm     87% 0 mm 0 W/m2
20:00 -5.9 °C -7.6 °C 1011.7 hPa Calm     88% 0 mm 0 W/m2
20:06 -5.9 °C -7.7 °C 1011.7 hPa Calm     87% 0 mm 0 W/m2
20:12 -5.9 °C -7.6 °C 1011.7 hPa Calm     88% 0 mm 0 W/m2
20:18 -5.9 °C -7.6 °C 1011.7 hPa Calm   1.6 km/h 88% 0 mm 0 W/m2
20:24 -5.9 °C -7.6 °C 1011.7 hPa Calm     88% 0 mm 0 W/m2
20:30 -5.9 °C -7.6 °C 1011.7 hPa Calm     88% 0 mm 0 W/m2
20:36 -5.9 °C -7.6 °C 1011.7 hPa Calm     88% 0 mm 0 W/m2
20:42 -5.9 °C -7.6 °C 1011.7 hPa Calm     88% 0 mm 0 W/m2
20:48 -5.9 °C -7.6 °C 1011.7 hPa Calm     88% 0 mm 0 W/m2
20:54 -5.9 °C -7.6 °C 1011.7 hPa Calm     88% 0 mm 0 W/m2
21:00 -5.9 °C -7.6 °C 1011.7 hPa Calm     88% 0 mm 0 W/m2
21:06 -5.9 °C -7.6 °C 1011.7 hPa SW 1.6 km/h 1.6 km/h 88% 0 mm 0 W/m2
21:12 -5.9 °C -7.6 °C 1011.7 hPa SW 1.6 km/h 1.6 km/h 88% 0 mm 0 W/m2
21:18 -6 °C -7.7 °C 1012.1 hPa Calm   1.6 km/h 88% 0 mm 0 W/m2
21:24 -6 °C -7.7 °C 1012.1 hPa WSW 1.6 km/h 4.8 km/h 88% 0 mm 0 W/m2
21:30 -5.9 °C -7.8 °C 1011.7 hPa West 1.6 km/h 1.6 km/h 87% 0 mm 0 W/m2
21:36 -5.9 °C -7.8 °C 1011.7 hPa West 1.6 km/h 1.6 km/h 87% 0 mm 0 W/m2
21:42 -5.9 °C -7.8 °C 1011.7 hPa Calm   1.6 km/h 87% 0 mm 0 W/m2
21:48 -5.9 °C -7.8 °C 1011.7 hPa West 1.6 km/h 3.2 km/h 87% 0 mm 0 W/m2
21:54 -5.9 °C -7.8 °C 1011.7 hPa Calm   1.6 km/h 87% 0 mm 0 W/m2
22:00 -5.9 °C -7.8 °C 1012.1 hPa Calm     87% 0 mm 0 W/m2
22:06 -5.9 °C -7.6 °C 1012.1 hPa Calm     88% 0 mm 0 W/m2
22:12 -5.9 °C -7.6 °C 1011.7 hPa Calm     88% 0 mm 0 W/m2
22:18 -6 °C -7.8 °C 1012.1 hPa Calm   3.2 km/h 87% 0 mm 0 W/m2
22:24 -6 °C -7.8 °C 1012.1 hPa West 1.6 km/h 4.8 km/h 87% 0 mm 0 W/m2
22:30 -6.1 °C -8 °C 1012.1 hPa WSW 1.6 km/h 1.6 km/h 86% 0 mm 0 W/m2
22:36 -6.1 °C -8 °C 1012.1 hPa West 1.6 km/h 4.8 km/h 86% 0 mm 0 W/m2
22:42 -6.1 °C -8.2 °C 1012.1 hPa WNW 1.6 km/h 4.8 km/h 85% 0 mm 0 W/m2
22:48 -6.2 °C -8.4 °C 1012.1 hPa WNW 1.6 km/h 4.8 km/h 84% 0 mm 0 W/m2
22:54 -6.2 °C -8.5 °C 1012.4 hPa NW 3.2 km/h 4.8 km/h 84% 0 mm 0 W/m2
23:00 -6.3 °C -8.7 °C 1012.8 hPa NW 1.6 km/h 1.6 km/h 83% 0 mm 0 W/m2
23:06 -6.4 °C -8.7 °C 1012.8 hPa NW 1.6 km/h 1.6 km/h 84% 0 mm 0 W/m2
23:12 -6.5 °C -8.8 °C 1012.8 hPa NW 1.6 km/h 1.6 km/h 84% 0 mm 0 W/m2
23:18 -6.7 °C -8.9 °C 1012.4 hPa Calm   1.6 km/h 84% 0 mm 0 W/m2
23:24 -6.7 °C -8.8 °C 1012.8 hPa Calm     85% 0 mm 0 W/m2
23:30 -6.7 °C -8.8 °C 1012.4 hPa NW 1.6 km/h 1.6 km/h 85% 0 mm 0 W/m2
23:36 -6.7 °C -8.8 °C 1012.4 hPa Calm   1.6 km/h 85% 0 mm 0 W/m2
23:42 -6.7 °C -8.8 °C 1012.8 hPa Calm     85% 0 mm 0 W/m2
23:48 -6.8 °C -8.9 °C 1012.8 hPa NW 1.6 km/h 1.6 km/h 85% 0 mm 0 W/m2
23:54 -6.8 °C -9.1 °C 1012.8 hPa NW 1.6 km/h 3.2 km/h 84% 0 mm 0 W/m2
Country Meadow, Clay, NY, USA
Compliments of Weather Underground - 2 mb